Weather Roundup
Issued by NWS Chicago, IL

Home | Current Version | Previous Version | Graphics & Text | Print | Product List | Glossary On
Versions: 1 2 3 4 5 6 7 8 9 10 11 12 13 14 15 16 17 18 19 20 21 22 23 24 25 26 27 28 29 30 31 32 33 34 35 36 37 38 39 40 41 42 43 44 45 46 47 48 49 50
000
NZUS59 KLOT 300408
HRRLOT

CHICAGO AREA WEATHER ROUNDUP
NATIONAL WEATHER SERVICE CHICAGO/ROMEOVILLE IL
1100 PM CDT SAT AUG 29 2015

NOTE: "FAIR" INDICATES FEW OR NO CLOUDS BELOW 12,000 FEET WITH NO
SIGNIFICANT WEATHER AND/OR OBSTRUCTIONS TO VISIBILITY.

* THESE STATIONS ARE NOT UNDER NWS QUALITY CONTROL. THEY ALSO MAY NOT
  REPORT WEATHER SUCH AS PRECIPITATION OR FOG.

ILZ005-006-012>014-019>023-300500-
NORTHEAST ILLINOIS

CITY           SKY/WX    TMP DP  RH WIND       PRES   REMARKS
OHARE          CLOUDY    67  65  93 N6        30.03S FOG
MIDWAY         CLOUDY    69  65  86 N3        30.03S FOG
AURORA         CLOUDY    68  66  93 SE3       30.05R FOG
LANSING*       CLOUDY    68  65  92 CALM      30.03S
JOLIET*        CLOUDY    70  68  94 NE3       30.04R FOG
WAUKEGAN       FOG       63  63 100 N5        30.03S VSB 1/2
DUPAGE AIRPORT CLOUDY    67  65  93 CALM      30.04S FOG
WHEELING       CLOUDY    66  63  90 CALM      30.05S FOG
KANKAKEE*      CLOUDY    70  69  99 CALM      30.03S FOG
MORRIS*        CLOUDY    68  67  96 CALM      30.03S FOG
LEWIS AIRPORT* CLOUDY    67  67  97 NE6       30.04S FOG
NORTHERLY IS     N/A     63  61  93 N7          N/A
$$

WIZ051-052-058>065-066-070>072-300500-
SOUTHEAST WISCONSIN

CITY           SKY/WX    TMP DP  RH WIND       PRES   REMARKS
MILWAUKEE      CLOUDY    63  62  97 N5        30.05S FOG
KENOSHA*       FOG       63  62  97 N5        30.05S VSB 1
RACINE*        CLOUDY    63  61  93 N8        30.06S FOG
BURLINGTON     CLOUDY    61  61  99 N3        30.05S FOG
WAUKESHA       CLOUDY    61  59  94 CALM      30.06F FOG
WEST BEND      CLOUDY    61  59  94 CALM      30.05F FOG
$$

INZ001>003-010>013-019-020-300500-
NORTHWEST INDIANA

CITY           SKY/WX    TMP DP  RH WIND       PRES   REMARKS
GARY*          CLOUDY    69  66  89 CALM      30.04R FOG
MICHIGAN CITY* NOT AVBL
RENSSELAER*    NOT AVBL
VALPARAISO       N/A     69  67  93 SW6       30.03F
$$

LMZ740>746-300500-
SOUTHERN LAKE MICHIGAN

STATION/POSITION TIME  SKY/WX   TEMP WIND        PRES    VSBY
                                AIR  DIR/SP/G
                 (UTC)          (F)  (DEG/KT/KT) (MB)    (MI)
HARRISON CRIB    0300            64  340/  5/  6   N/A
BURNHAM HARBOR   0400            63  350/  6       N/A
CALUMET HARBOR   NOT AVBL
BURNS HARBOR     0300            70  290/  5/  6 1017.3R
MICHIGAN CITY    0300            71  150/  6/  6   N/A
$$

ABBREVIATIONS USED IN REMARKS
   TC - TEMPERATURE IN CELSIUS
  WCI - WIND CHILL INDEX
   HX - HEAT INDEX
  VSB - VISIBILITY
$$



USA.gov is the U.S. government's official web portal to all federal, state and local government web resources and services.